Change the Weather History Date:

Monday, June 24, 2013

  Actual Average Record
Temperature  
Mean Temperature 78 °F 71 °F  
Max Temperature 85 °F 81 °F 93 °F (1998)
Min Temperature 71 °F 60 °F 41 °F (1974)
Degree Days  
Heating Degree Days 0 1  
Month to date heating degree days 34 45  
Since 1 June heating degree days 34 45  
Since 1 July heating degree days 5983 6157  
Cooling Degree Days 13 6  
Month to date cooling degree days 109 105  
Year to date cooling degree days 199 147  
Since 1 June cooling degree days 109 105  
Growing Degree Days 28 (Base 50)    
Moisture  
Dew Point 66 °F    
Average Humidity 65    
Maximum Humidity 79    
Minimum Humidity 51    
Precipitation  
Precipitation T in 0.14 in 1.20 in (1967)
Month to date precipitation 3.81 3.45  
Year to date precipitation 22.34 16.04  
Sea Level Pressure  
Sea Level Pressure 30.00 in    
Wind  
Wind Speed 10 mph (SW)    
Max Wind Speed 24 mph    
Max Gust Speed 32 mph    
Visibility 9 miles    
Events Rain    
T = Trace of Precipitation, MM = Missing Value Source: NWS Daily Summary

Daily Weather History Graph

Daily Weather History Graph

Search for Another Location

Airport or City:

Trip Planner

Search our weather history database for the weather conditions in past years. The results will help you decide how hot, cold, wet, or windy it might be!

Date:

Astronomy

Jun. 24, 2013 Rise Set
Actual Time 6:07 AM EDT 9:26 PM EDT
Civil Twilight 5:31 AM EDT 10:01 PM EDT
Nautical Twilight 4:46 AM EDT 10:47 PM EDT
Astronomical Twilight 3:50 AM EDT 11:43 PM EDT
Moon 10:25 PM EDT (6/24) 7:36 AM EDT (6/24)
Length of Visible Light 16h 29m
Length of Day
15h 19m
Full, 98% of the Moon is Illuminated
Jun 24
Full
Jun 30
Last Quarter
Jul 8
New
Jul 15
First Quarter
Jul 22
Full

Hourly Weather History & Observations

Time (EDT) Temp. Heat Index Dew Point Humidity Pressure Visibility Wind Dir Wind Speed Gust Speed Precip Events Conditions
12:53 AM 78.1 °F - 66.0 °F 66% 30.01 in 10.0 mi SW 13.8 mph 20.7 mph N/A   Clear
1:53 AM 75.9 °F - 66.0 °F 71% 30.00 in 10.0 mi SSW 12.7 mph - N/A   Clear
2:53 AM 75.9 °F - 66.0 °F 71% 30.00 in 10.0 mi SSW 11.5 mph - N/A   Clear
3:53 AM 75.9 °F - 66.0 °F 71% 30.00 in 10.0 mi SW 8.1 mph - N/A   Clear
4:53 AM 75.0 °F - 64.9 °F 71% 30.00 in 10.0 mi SSW 8.1 mph - N/A   Clear
5:53 AM 73.9 °F - 66.0 °F 76% 30.00 in 10.0 mi SSW 6.9 mph - N/A   Clear
6:53 AM 73.0 °F - 66.0 °F 79% 30.01 in 9.0 mi SSW 6.9 mph - N/A   Clear
7:53 AM 75.0 °F - 66.9 °F 76% 30.03 in 10.0 mi SW 15.0 mph 21.9 mph N/A   Mostly Cloudy
8:33 AM 75.2 °F - 68.0 °F 78% 30.05 in 8.0 mi SW 12.7 mph 23.0 mph N/A   Partly Cloudy
8:53 AM 75.9 °F - 68.0 °F 76% 30.04 in 9.0 mi SW 15.0 mph - N/A   Partly Cloudy
9:07 AM 75.2 °F - 68.0 °F 78% 30.05 in 7.0 mi SW 17.3 mph 21.9 mph N/A   Mostly Cloudy
9:22 AM 75.2 °F - 69.8 °F 83% 30.05 in 5.0 mi SW 13.8 mph - N/A   Haze
9:51 AM 78.8 °F - 69.8 °F 74% 30.05 in 9.0 mi SW 13.8 mph - N/A   Scattered Clouds
9:53 AM 78.1 °F - 69.1 °F 74% 30.04 in 9.0 mi SW 15.0 mph - N/A   Scattered Clouds
10:53 AM 77.0 °F - 69.1 °F 76% 30.06 in 8.0 mi WSW 15.0 mph 24.2 mph N/A   Clear
11:53 AM 79.0 °F - 66.9 °F 66% 30.06 in 10.0 mi WSW 17.3 mph 25.3 mph N/A   Overcast
12:53 PM 81.0 °F 83.8 °F 68.0 °F 65% 30.04 in 10.0 mi WSW 11.5 mph - N/A   Scattered Clouds
1:53 PM 81.0 °F 83.0 °F 66.0 °F 60% 30.01 in 10.0 mi SW 10.4 mph - N/A   Partly Cloudy
2:53 PM 84.0 °F 85.4 °F 64.0 °F 51% 29.98 in 10.0 mi Variable 3.5 mph - N/A   Clear
3:53 PM 82.9 °F 84.4 °F 64.0 °F 53% 29.99 in 10.0 mi WSW 11.5 mph - N/A   Scattered Clouds
4:53 PM 81.0 °F 82.7 °F 64.9 °F 58% 29.97 in 10.0 mi West 5.8 mph - N/A   Clear
5:53 PM 82.0 °F 83.8 °F 64.9 °F 56% 29.97 in 10.0 mi WSW 8.1 mph - N/A   Clear
6:53 PM 81.0 °F 82.7 °F 64.9 °F 58% 29.96 in 10.0 mi WSW 10.4 mph - N/A   Partly Cloudy
7:53 PM 81.0 °F 82.7 °F 64.9 °F 58% 29.93 in 10.0 mi SSW 6.9 mph - N/A   Clear
8:53 PM 79.0 °F - 66.0 °F 64% 29.90 in 10.0 mi South 3.5 mph - N/A   Clear
9:53 PM 75.0 °F - 66.9 °F 76% 29.86 in 10.0 mi Calm Calm - N/A   Clear
10:53 PM 72.0 °F - 63.0 °F 73% 29.94 in 10.0 mi SW 17.3 mph 32.2 mph 0.00 in Rain Light Rain
11:53 PM 71.1 °F - 63.0 °F 75% 29.94 in 10.0 mi WSW 15.0 mph - 0.00 in   Clear